Location: Peterborough
(44.3091°N, 78.3197°W)
Time: 06:27:11
(UTC-04:00)

Vanguard 3 - Pass Details

Date: 31 March 2023
Orbit: 507 x 3246 km, 33.4° (Epoch: 04 June)

Event Time Altitude Azimuth Distance (km) Brightness Sun altitude
Rises 01:13:58 0° 211° (SSW) 5,597 - -41.6°
Reaches altitude 10° 01:17:41 10° 203° (SSW) 4,944 - -41.6°
Maximum altitude 01:30:53 35° 144° (SE) 4,114 - -41.5°
Exits shadow 01:35:12 32° 122° (ESE) 4,426 10.5 -41.5°
Drops below altitude 10° 01:47:19 10° 89° (E) 6,175 11.7 -41.2°
Sets 01:52:38 0° 82° (E) 7,111 12.2 -41.0°
